Regional Weather Roundup
Issued by NWS Jackson, KY

Home | Current Version | Previous Version | Graphics & Text | Print | Product List | Glossary On
Versions: 1 2 3 4 5 6 7 8 9 10 11 12 13 14 15 16 17 18 19 20 21 22 23 24 25 26 27 28 29 30 31 32 33 34 35 36 37 38 39 40 41 42 43 44 45 46 47 48 49 50
000
ASUS43 KJKL 032210
RWRJKL

EAST KENTUCKY HOURLY WEATHER ROUNDUP
NATIONAL WEATHER SERVICE JACKSON KY
600 PM EDT THU SEP 03 2015

NOTE: "FAIR" INDICATES FEW OR NO CLOUDS BELOW 12,000 FEET WITH
NO SIGNIFICANT WEATHER AND/OR OBSTRUCTIONS TO VISIBILITY.

* THESE REPORTS ARE NOT UNDER NWS QUALITY CONTROL AND MAY NOT
  REPORT WEATHER SUCH AS PRECIPITATION AND FOG.

KYZ079-080-083-085-087-088-110-112-115-119-120-032300
...EASTERN KENTUCKY...

CITY           SKY/WX    TMP DP  RH WIND       PRES   REMARKS
JACKSON        SUNNY     85  69  58 CALM      29.99F
LONDON         SUNNY     85  65  51 CALM      29.98F
SOMERSET*      CLOUDY    88  61  40 W7        29.98S
MONTICELLO*    SUNNY     91  67  45 NW6       30.00F HX  94
WILLIAMSBURG*  PTSUNNY   86  66  51 N6        29.98
MIDDLESBORO*   SUNNY     87  66  48 N3        29.97F
HARLAN APT*      N/A     86  61  42 MISG      29.99F
HAZARD APT*    CLEAR     86  64  48 NW3       29.99S
BLACK MTN*       N/A     70  64  83 VRB2        N/A
PIKEVILLE APT* SUNNY     84  68  58 N5        29.99S
BIG SANDY*     PTCLDY    85  69  58 NW5       29.98S
MOREHEAD APT*  PTCLDY    88  64  45 VRB5      29.98F
$$

KYZ035-036-041-042-044-050-067-078-099-032300
...CENTRAL KENTUCKY...

CITY           SKY/WX    TMP DP  RH WIND       PRES   REMARKS
MT STERLING*   SUNNY     90  64  43 N3        29.98F HX  91
FLEMING/MASON* SUNNY    N/A N/A N/A W6        29.97F
DANVILLE*      PTSUNNY   88  66  48 W8        29.98F HX  90
RICHMOND*      MOSUNNY   88  63  42 CALM      29.96F
LEXINGTON      SUNNY     90  64  42 N7        29.97F HX  91
FRANKFORT      SUNNY     90  63  40 VRB5      29.95F HX  91
$$

KYZ091>093-OHZ055-061-077-WVZ005-015-034-035-042-032300
...SOUTHERN OHIO/WEST VIRGINIA...

CITY           SKY/WX    TMP DP  RH WIND       PRES   REMARKS
COVINGTON      MOSUNNY   90  63  40 W10       29.95F HX  91
COLUMBUS       PTSUNNY   85  67  54 CALM      29.94S THUNDER
DAYTON         MOSUNNY   88  64  44 W10       29.95F
WILMINGTON     SUNNY     87  65  47 W9        29.95F
HUNTINGTON     MOSUNNY   90  60  36 NW9       29.95S
CHARLESTON     MOSUNNY   88  65  46 N3        29.95F HX  90
PINEVILLE*     PTSUNNY   78  71  78 MISG      30.05R
BECKLEY        SUNNY     80  65  59 N7        30.04S
BLUEFIELD      MOSUNNY   76  63  64 VRB6      30.07S
$$

VAZ002-007-008-TNZ017-027-036-066-071-032300
...SOUTHWEST VIRGINIA/EAST TENNESSEE...

CITY           SKY/WX    TMP DP  RH WIND       PRES   REMARKS
WISE*          SUNNY     81  57  44 N6        30.06F
JONESVILLE*    CLEAR     88  64  45 CALM      30.00S
ABINGDON*      SUNNY     85  61  43 CALM      30.01S
BRISTOL        MOSUNNY   88  64  44 CALM      29.98F
KNOXVILLE      MOSUNNY   90  61  37 E8        29.94F HX  90
OAK RIDGE      SUNNY     91  64  40 CALM      29.97S HX  92
CROSSVILLE     SUNNY     85  59  41 VRB5      30.02F
NASHVILLE      MOSUNNY   93  60  33 E5        29.94S HX  93
$$

...KEY TO REMARKS...
VSB - VISIBILITY IN MILES
WCI - WIND CHILL INDEX
HX  - HEAT INDEX

$$



USA.gov is the U.S. government's official web portal to all federal, state and local government web resources and services.